EZY91QH EGPH-EGKK

Flight info

Callsign EZY91QH
Flight time 1h 29m
Altitude 33000
Route GOSAM P600 FENIK L612 NAVSO DCT KEPAD L151 DISIT
Aircraft A320/M-SDE2E3FGHIRWXY/LB1

Departure

Time 2026-05-05 19:37
Airport Edinburgh Airport (EGPH)

Arrival

Time 2026-05-05 21:06
Airport London Gatwick Airport (EGKK)
Time Latitude Longitude Altitude Speed Heading
2026-05-05 19:09 55.94836 -3.35805 117 ft 0 kts 208°
2026-05-05 19:27 55.94838 -3.35803 116 ft 1 kts 209°
2026-05-05 19:27 55.94853 -3.35787 112 ft 3 kts 214°
2026-05-05 19:28 55.94869 -3.35765 112 ft 3 kts 225°
2026-05-05 19:28 55.94881 -3.35738 112 ft 3 kts 246°
2026-05-05 19:28 55.94886 -3.35709 112 ft 2 kts 288°
2026-05-05 19:28 55.94884 -3.35700 113 ft 0 kts 298°
2026-05-05 19:31 55.94893 -3.35729 114 ft 8 kts 298°
2026-05-05 19:31 55.94917 -3.35809 116 ft 7 kts 298°
2026-05-05 19:32 55.94942 -3.35853 114 ft 4 kts 353°
2026-05-05 19:32 55.94981 -3.35853 115 ft 9 kts
2026-05-05 19:32 55.95051 -3.35843 115 ft 10 kts 314°
2026-05-05 19:32 55.95086 -3.35970 113 ft 17 kts 294°
2026-05-05 19:33 55.95127 -3.36181 116 ft 12 kts 288°
2026-05-05 19:33 55.95126 -3.36308 114 ft 11 kts 236°
2026-05-05 19:33 55.95069 -3.36475 114 ft 21 kts 239°
2026-05-05 19:33 55.94973 -3.36755 113 ft 32 kts 239°
2026-05-05 19:34 55.94849 -3.37121 113 ft 36 kts 238°
2026-05-05 19:34 55.94719 -3.37504 114 ft 37 kts 239°
2026-05-05 19:34 55.94586 -3.37897 114 ft 37 kts 239°
2026-05-05 19:35 55.94329 -3.38655 115 ft 22 kts 239°
2026-05-05 19:35 55.94280 -3.38835 116 ft 13 kts 278°
2026-05-05 19:35 55.94343 -3.38936 114 ft 12 kts 324°
2026-05-05 19:35 55.94423 -3.38957 112 ft 13 kts 43°
2026-05-05 19:36 55.94465 -3.38825 114 ft 8 kts 58°
2026-05-05 19:36 55.94475 -3.38799 113 ft 0 kts 58°
2026-05-05 19:37 55.94554 -3.38561 111 ft 58 kts 59°
2026-05-05 19:37 55.94882 -3.37596 114 ft 120 kts 59°
2026-05-05 19:37 55.95365 -3.36082 383 ft 142 kts 61°
2026-05-05 19:37 55.95855 -3.34575 1056 ft 142 kts 56°
2026-05-05 19:38 55.96574 -3.33304 1543 ft 157 kts 44°
2026-05-05 19:38 55.97454 -3.31930 1881 ft 180 kts 45°
2026-05-05 19:38 55.98446 -3.30335 2221 ft 204 kts 45°
2026-05-05 19:38 55.99606 -3.28627 2661 ft 230 kts 31°
2026-05-05 19:39 56.01231 -3.28125 3325 ft 251 kts 352°
2026-05-05 19:39 56.02785 -3.29608 4244 ft 264 kts 316°
2026-05-05 19:39 56.03606 -3.32555 5271 ft 272 kts 281°
2026-05-05 19:39 56.03518 -3.35923 6407 ft 271 kts 261°
2026-05-05 19:40 56.03016 -3.39160 7464 ft 270 kts 254°
2026-05-05 19:40 56.02393 -3.42341 8398 ft 271 kts 253°
2026-05-05 19:40 56.01769 -3.45530 9312 ft 274 kts 254°
2026-05-05 19:40 56.01178 -3.48790 10176 ft 276 kts 256°
2026-05-05 19:41 56.00615 -3.52198 10550 ft 297 kts 257°
2026-05-05 19:41 56.00055 -3.55862 10986 ft 312 kts 257°
2026-05-05 19:41 55.99504 -3.59639 11713 ft 317 kts 258°
2026-05-05 19:41 55.98960 -3.63472 12501 ft 320 kts 258°
2026-05-05 19:42 55.98413 -3.67338 13290 ft 323 kts 258°
2026-05-05 19:42 55.97858 -3.71239 14043 ft 326 kts 257°
2026-05-05 19:42 55.97294 -3.75177 14742 ft 329 kts 257°
2026-05-05 19:42 55.96722 -3.79148 15412 ft 332 kts 257°
2026-05-05 19:43 55.96145 -3.83148 16075 ft 335 kts 257°
2026-05-05 19:43 55.95558 -3.87193 16739 ft 338 kts 257°
2026-05-05 19:43 55.94960 -3.91275 17396 ft 341 kts 257°
2026-05-05 19:43 55.94356 -3.95391 18038 ft 345 kts 257°
2026-05-05 19:44 55.93515 -3.99408 18642 ft 350 kts 244°
2026-05-05 19:44 55.92080 -4.02956 19191 ft 357 kts 228°
2026-05-05 19:44 55.90136 -4.05775 19753 ft 363 kts 218°
2026-05-05 19:44 55.88067 -4.08391 20328 ft 366 kts 218°
2026-05-05 19:45 55.85987 -4.11031 20903 ft 368 kts 218°
2026-05-05 19:45 55.83894 -4.13692 21472 ft 371 kts 218°
2026-05-05 19:45 55.81784 -4.16365 22041 ft 374 kts 218°
2026-05-05 19:45 55.79657 -4.19054 22598 ft 377 kts 218°
2026-05-05 19:46 55.77498 -4.21728 23163 ft 381 kts 214°
2026-05-05 19:46 55.75094 -4.23790 23694 ft 388 kts 202°
2026-05-05 19:46 55.72450 -4.24897 24138 ft 396 kts 190°
2026-05-05 19:46 55.69678 -4.24984 24581 ft 403 kts 177°
2026-05-05 19:47 55.66955 -4.23964 25012 ft 409 kts 165°
2026-05-05 19:47 55.64301 -4.22056 25440 ft 415 kts 156°
2026-05-05 19:47 55.61758 -4.19614 25856 ft 418 kts 154°
2026-05-05 19:47 55.59207 -4.17124 26262 ft 420 kts 154°
2026-05-05 19:48 55.56644 -4.14616 26659 ft 422 kts 154°
2026-05-05 19:48 55.54071 -4.12101 27042 ft 424 kts 154°
2026-05-05 19:48 55.51478 -4.09568 27431 ft 427 kts 154°
2026-05-05 19:48 55.48873 -4.07027 27807 ft 429 kts 154°
2026-05-05 19:49 55.46252 -4.04480 28177 ft 431 kts 154°
2026-05-05 19:49 55.44477 -4.02759 28398 ft 433 kts 154°
2026-05-05 19:49 55.40966 -3.99359 28868 ft 436 kts 154°
2026-05-05 19:49 55.38300 -3.96784 29225 ft 438 kts 154°
2026-05-05 19:50 55.35623 -3.94199 29568 ft 440 kts 154°
2026-05-05 19:50 55.32931 -3.91602 29902 ft 442 kts 154°
2026-05-05 19:50 55.30228 -3.88998 30216 ft 444 kts 154°
2026-05-05 19:50 55.27518 -3.86387 30480 ft 446 kts 154°
2026-05-05 19:51 55.24792 -3.83766 30753 ft 448 kts 154°
2026-05-05 19:51 55.22016 -3.81302 31015 ft 447 kts 160°
2026-05-05 19:51 55.19097 -3.79456 31236 ft 446 kts 165°
2026-05-05 19:51 55.16152 -3.77730 31477 ft 448 kts 165°
2026-05-05 19:52 55.13192 -3.76002 31790 ft 448 kts 165°
2026-05-05 19:52 55.10238 -3.74281 32138 ft 447 kts 165°
2026-05-05 19:52 55.07287 -3.72561 32474 ft 446 kts 165°
2026-05-05 19:52 55.04350 -3.70847 32818 ft 446 kts 165°
2026-05-05 19:53 55.01405 -3.69132 33046 ft 446 kts 165°
2026-05-05 19:53 54.98494 -3.67438 33082 ft 435 kts 165°
2026-05-05 19:53 54.95649 -3.65783 33081 ft 428 kts 165°
2026-05-05 19:54 54.90032 -3.62531 33078 ft 424 kts 165°
2026-05-05 19:54 54.84434 -3.59310 33077 ft 424 kts 165°
2026-05-05 19:55 54.78835 -3.56092 33065 ft 424 kts 165°
2026-05-05 19:55 54.73238 -3.52886 33064 ft 424 kts 165°
2026-05-05 19:56 54.67645 -3.49675 33047 ft 423 kts 165°
2026-05-05 19:56 54.62058 -3.46489 33048 ft 423 kts 165°
2026-05-05 19:57 54.56474 -3.43305 33042 ft 423 kts 165°
2026-05-05 19:57 54.50883 -3.40132 33043 ft 423 kts 165°
2026-05-05 19:58 54.46233 -3.37511 33045 ft 423 kts 165°
2026-05-05 19:58 54.40648 -3.34360 33035 ft 423 kts 165°
2026-05-05 19:59 54.35055 -3.31207 33039 ft 423 kts 165°
2026-05-05 19:59 54.29457 -3.28066 33039 ft 423 kts 165°
2026-05-05 20:00 54.23869 -3.24939 33040 ft 423 kts 165°
2026-05-05 20:00 54.18276 -3.21822 33026 ft 423 kts 165°
2026-05-05 20:01 54.12678 -3.18710 33035 ft 423 kts 165°
2026-05-05 20:01 54.07088 -3.15613 33039 ft 422 kts 165°
2026-05-05 20:02 54.01507 -3.12516 33054 ft 421 kts 165°
2026-05-05 20:02 53.95936 -3.09435 33057 ft 421 kts 165°
2026-05-05 20:03 53.90371 -3.06375 33052 ft 420 kts 165°
2026-05-05 20:03 53.84813 -3.03331 33058 ft 419 kts 165°
2026-05-05 20:04 53.79263 -3.00298 33061 ft 419 kts 165°
2026-05-05 20:04 53.73716 -2.97270 33058 ft 419 kts 165°
2026-05-05 20:05 53.68176 -2.94257 33021 ft 419 kts 165°
2026-05-05 20:05 53.62628 -2.91248 33024 ft 419 kts 165°
2026-05-05 20:06 53.57076 -2.88248 33029 ft 419 kts 165°
2026-05-05 20:06 53.51558 -2.85271 33039 ft 419 kts 165°
2026-05-05 20:07 53.46009 -2.82283 33030 ft 419 kts 165°
2026-05-05 20:07 53.40450 -2.79300 33032 ft 419 kts 165°
2026-05-05 20:08 53.34894 -2.76327 33041 ft 419 kts 165°
2026-05-05 20:08 53.29335 -2.73364 33038 ft 419 kts 165°
2026-05-05 20:09 53.23777 -2.70401 33038 ft 419 kts 165°
2026-05-05 20:09 53.18222 -2.67457 33026 ft 419 kts 165°
2026-05-05 20:10 53.12651 -2.64510 33029 ft 420 kts 165°
2026-05-05 20:10 53.07080 -2.61563 33019 ft 420 kts 165°
2026-05-05 20:11 53.01509 -2.58629 33021 ft 420 kts 165°
2026-05-05 20:11 52.95927 -2.55708 33010 ft 421 kts 164°
2026-05-05 20:12 52.90338 -2.52781 33008 ft 422 kts 164°
2026-05-05 20:12 52.84736 -2.49851 33010 ft 423 kts 163°
2026-05-05 20:13 52.79329 -2.46060 33012 ft 425 kts 149°
2026-05-05 20:13 52.74408 -2.40639 33016 ft 425 kts 147°
2026-05-05 20:14 52.69410 -2.35121 33031 ft 441 kts 147°
2026-05-05 20:14 52.64251 -2.29456 33030 ft 449 kts 147°
2026-05-05 20:15 52.59073 -2.23779 32680 ft 439 kts 147°
2026-05-05 20:15 52.56562 -2.21029 32362 ft 430 kts 147°
2026-05-05 20:15 52.54099 -2.18332 32034 ft 421 kts 147°
2026-05-05 20:15 52.51709 -2.15725 31732 ft 414 kts 147°
2026-05-05 20:16 52.49324 -2.13134 31420 ft 409 kts 148°
2026-05-05 20:16 52.46963 -2.10574 31104 ft 404 kts 148°
2026-05-05 20:16 52.44627 -2.08044 30810 ft 400 kts 148°
2026-05-05 20:16 52.42309 -2.05535 30509 ft 398 kts 148°
2026-05-05 20:17 52.39980 -2.03015 30210 ft 395 kts 148°
2026-05-05 20:17 52.37723 -2.00572 29884 ft 393 kts 148°
2026-05-05 20:17 52.35448 -1.98111 29534 ft 391 kts 148°
2026-05-05 20:17 52.33194 -1.95673 29192 ft 385 kts 149°
2026-05-05 20:18 52.30972 -1.93276 28854 ft 382 kts 149°
2026-05-05 20:18 52.28758 -1.90898 28515 ft 380 kts 149°
2026-05-05 20:18 52.26555 -1.88538 28168 ft 378 kts 150°
2026-05-05 20:18 52.24368 -1.86198 27850 ft 375 kts 150°
2026-05-05 20:19 52.22191 -1.83862 27519 ft 374 kts 149°
2026-05-05 20:19 52.20023 -1.81531 27203 ft 372 kts 149°
2026-05-05 20:19 52.17865 -1.79212 26890 ft 371 kts 149°
2026-05-05 20:19 52.15712 -1.76904 26574 ft 370 kts 149°
2026-05-05 20:20 52.13563 -1.74608 26268 ft 369 kts 149°
2026-05-05 20:20 52.11418 -1.72323 25964 ft 368 kts 149°
2026-05-05 20:20 52.09281 -1.70052 25664 ft 366 kts 149°
2026-05-05 20:20 52.07152 -1.67792 25358 ft 365 kts 149°
2026-05-05 20:21 52.05028 -1.65535 25066 ft 364 kts 149°
2026-05-05 20:21 52.02907 -1.63284 24745 ft 363 kts 149°
2026-05-05 20:21 52.00794 -1.61048 24446 ft 363 kts 149°
2026-05-05 20:21 51.98680 -1.58814 24166 ft 362 kts 149°
2026-05-05 20:22 51.96569 -1.56584 23878 ft 361 kts 149°
2026-05-05 20:22 51.94464 -1.54357 23594 ft 361 kts 149°
2026-05-05 20:22 51.92370 -1.52139 23258 ft 359 kts 149°
2026-05-05 20:22 51.90279 -1.49927 22932 ft 358 kts 149°
2026-05-05 20:23 51.88201 -1.47733 22601 ft 356 kts 149°
2026-05-05 20:23 51.86133 -1.45554 22261 ft 354 kts 149°
2026-05-05 20:23 51.84076 -1.43393 21947 ft 352 kts 149°
2026-05-05 20:23 51.82025 -1.41245 21632 ft 350 kts 149°
2026-05-05 20:24 51.79986 -1.39112 21312 ft 348 kts 148°
2026-05-05 20:24 51.77960 -1.36992 20996 ft 347 kts 148°
2026-05-05 20:24 51.75937 -1.34878 20695 ft 345 kts 148°
2026-05-05 20:24 51.73926 -1.32778 20389 ft 343 kts 148°
2026-05-05 20:25 51.71926 -1.30691 20081 ft 341 kts 148°
2026-05-05 20:25 51.69936 -1.28620 19788 ft 339 kts 148°
2026-05-05 20:25 51.67959 -1.26563 19493 ft 337 kts 148°
2026-05-05 20:25 51.65994 -1.24519 19206 ft 335 kts 148°
2026-05-05 20:26 51.64044 -1.22491 18905 ft 333 kts 148°
2026-05-05 20:26 51.62104 -1.20480 18625 ft 330 kts 148°
2026-05-05 20:26 51.60179 -1.18482 18342 ft 328 kts 148°
2026-05-05 20:26 51.58273 -1.16500 18020 ft 326 kts 148°
2026-05-05 20:27 51.56366 -1.14523 17698 ft 325 kts 147°
2026-05-05 20:27 51.54491 -1.12583 17382 ft 326 kts 147°
2026-05-05 20:27 51.52582 -1.10615 17061 ft 325 kts 147°
2026-05-05 20:27 51.50681 -1.08658 16742 ft 325 kts 148°
2026-05-05 20:28 51.48781 -1.06703 16433 ft 324 kts 148°
2026-05-05 20:28 51.46885 -1.04751 16123 ft 323 kts 147°
2026-05-05 20:28 51.45003 -1.02813 15808 ft 321 kts 147°
2026-05-05 20:28 51.43127 -1.00884 15510 ft 320 kts 147°
2026-05-05 20:29 51.41256 -0.98961 15213 ft 319 kts 148°
2026-05-05 20:29 51.39392 -0.97051 14914 ft 318 kts 148°
2026-05-05 20:29 51.37528 -0.95144 14608 ft 318 kts 147°
2026-05-05 20:29 51.35670 -0.93240 14319 ft 317 kts 147°
2026-05-05 20:30 51.33824 -0.91347 14033 ft 315 kts 147°
2026-05-05 20:30 51.31984 -0.89466 13756 ft 313 kts 147°
2026-05-05 20:30 51.30154 -0.87600 13439 ft 311 kts 147°
2026-05-05 20:30 51.28334 -0.85747 13120 ft 310 kts 147°
2026-05-05 20:31 51.26524 -0.83905 12808 ft 309 kts 147°
2026-05-05 20:31 51.24717 -0.82065 12487 ft 308 kts 147°
2026-05-05 20:31 51.22916 -0.80234 12179 ft 307 kts 147°
2026-05-05 20:31 51.21117 -0.78408 11873 ft 306 kts 147°
2026-05-05 20:32 51.19330 -0.76590 11564 ft 305 kts 147°
2026-05-05 20:32 51.17542 -0.74776 11262 ft 304 kts 147°
2026-05-05 20:32 51.15757 -0.72969 10961 ft 303 kts 147°
2026-05-05 20:32 51.13975 -0.71169 10674 ft 303 kts 147°
2026-05-05 20:33 51.12202 -0.69379 10368 ft 302 kts 147°
2026-05-05 20:33 51.10452 -0.67611 10081 ft 301 kts 147°
2026-05-05 20:33 51.08664 -0.65804 9773 ft 300 kts 147°
2026-05-05 20:33 51.06937 -0.64032 9461 ft 298 kts 142°
2026-05-05 20:34 51.05451 -0.61852 9144 ft 292 kts 128°
2026-05-05 20:34 51.04350 -0.59194 8830 ft 285 kts 114°
2026-05-05 20:34 51.03480 -0.56387 8502 ft 281 kts 114°
2026-05-05 20:34 51.02619 -0.53634 8215 ft 275 kts 114°
2026-05-05 20:35 51.01776 -0.50954 7958 ft 265 kts 114°
2026-05-05 20:35 51.00972 -0.48407 7703 ft 253 kts 114°
2026-05-05 20:35 51.00188 -0.45918 7450 ft 250 kts 114°
2026-05-05 20:35 50.99411 -0.43455 7194 ft 249 kts 114°
2026-05-05 20:36 50.98640 -0.41007 7037 ft 247 kts 114°
2026-05-05 20:36 50.97872 -0.38570 7007 ft 247 kts 114°
2026-05-05 20:36 50.97102 -0.36125 7009 ft 248 kts 114°
2026-05-05 20:36 50.96332 -0.33687 7013 ft 247 kts 114°
2026-05-05 20:37 50.95560 -0.31249 7005 ft 247 kts 114°
2026-05-05 20:37 50.95411 -0.30779 7009 ft 247 kts 114°
2026-05-05 20:37 50.94958 -0.29345 7013 ft 247 kts 114°
2026-05-05 20:38 50.94188 -0.26906 7005 ft 247 kts 114°
2026-05-05 20:38 50.93419 -0.24473 7008 ft 247 kts 114°
2026-05-05 20:38 50.92645 -0.22033 7006 ft 247 kts 114°
2026-05-05 20:38 50.91874 -0.19606 7008 ft 247 kts 114°
2026-05-05 20:39 50.91098 -0.17168 7004 ft 247 kts 114°
2026-05-05 20:39 50.90323 -0.14735 7012 ft 247 kts 114°
2026-05-05 20:39 50.89550 -0.12307 7010 ft 247 kts 114°
2026-05-05 20:39 50.88776 -0.09875 7011 ft 247 kts 114°
2026-05-05 20:40 50.88241 -0.07363 7004 ft 243 kts 94°
2026-05-05 20:40 50.88225 -0.04672 7007 ft 242 kts 88°
2026-05-05 20:40 50.88147 -0.02036 7008 ft 243 kts 91°
2026-05-05 20:40 50.88034 0.00635 7016 ft 243 kts 91°
2026-05-05 20:41 50.87912 0.03310 7016 ft 244 kts 91°
2026-05-05 20:41 50.87952 0.05966 7017 ft 239 kts 71°
2026-05-05 20:41 50.88756 0.08188 7020 ft 233 kts 40°
2026-05-05 20:41 50.90162 0.09354 7022 ft 230 kts
2026-05-05 20:42 50.91734 0.09118 7033 ft 231 kts 337°
2026-05-05 20:42 50.92985 0.07549 7040 ft 235 kts 306°
2026-05-05 20:42 50.93697 0.05198 7035 ft 238 kts 293°
2026-05-05 20:42 50.94257 0.02729 6862 ft 237 kts 291°
2026-05-05 20:43 50.94791 0.00258 6506 ft 237 kts 291°
2026-05-05 20:43 50.95319 -0.02211 6135 ft 236 kts 291°
2026-05-05 20:43 50.95848 -0.04670 5751 ft 236 kts 291°
2026-05-05 20:43 50.96375 -0.07125 5379 ft 235 kts 291°
2026-05-05 20:44 50.96896 -0.09573 5056 ft 233 kts 291°
2026-05-05 20:44 50.97412 -0.12005 5005 ft 234 kts 291°
2026-05-05 20:44 50.97932 -0.14456 5009 ft 235 kts 291°
2026-05-05 20:44 50.98454 -0.16917 5028 ft 235 kts 291°
2026-05-05 20:45 50.99494 -0.21833 5030 ft 235 kts 291°
2026-05-05 20:45 51.00015 -0.24296 5030 ft 235 kts 291°
2026-05-05 20:45 51.00537 -0.26765 5029 ft 235 kts 291°
2026-05-05 20:46 51.01052 -0.29193 5029 ft 235 kts 291°
2026-05-05 20:46 51.01405 -0.30852 5028 ft 235 kts 291°
2026-05-05 20:46 51.02097 -0.34113 5032 ft 235 kts 291°
2026-05-05 20:46 51.02618 -0.36573 5013 ft 235 kts 291°
2026-05-05 20:47 51.03135 -0.39016 4686 ft 233 kts 291°
2026-05-05 20:47 51.03653 -0.41459 4313 ft 233 kts 291°
2026-05-05 20:47 51.04172 -0.43881 4049 ft 229 kts 291°
2026-05-05 20:47 51.04691 -0.46287 4027 ft 231 kts 291°
2026-05-05 20:48 51.05044 -0.47929 4027 ft 232 kts 291°
2026-05-05 20:48 51.05569 -0.50358 4027 ft 233 kts 291°
2026-05-05 20:48 51.06092 -0.52791 4026 ft 233 kts 291°
2026-05-05 20:48 51.06618 -0.55230 4023 ft 233 kts 291°
2026-05-05 20:49 51.07141 -0.57661 4024 ft 233 kts 291°
2026-05-05 20:49 51.07658 -0.60067 4026 ft 233 kts 291°
2026-05-05 20:49 51.08120 -0.62532 4023 ft 234 kts 277°
2026-05-05 20:49 51.07889 -0.65090 4028 ft 238 kts 252°
2026-05-05 20:50 51.07457 -0.67445 4032 ft 238 kts 257°
2026-05-05 20:50 51.06757 -0.69867 4027 ft 240 kts 239°
2026-05-05 20:50 51.06116 -0.72243 4021 ft 237 kts 265°
2026-05-05 20:50 51.06316 -0.74774 4027 ft 231 kts 297°
2026-05-05 20:51 51.07321 -0.76675 4031 ft 225 kts 330°
2026-05-05 20:51 51.08792 -0.77360 4028 ft 222 kts
2026-05-05 20:51 51.10233 -0.76621 4030 ft 222 kts 36°
2026-05-05 20:51 51.11170 -0.74706 4031 ft 224 kts 69°
2026-05-05 20:52 51.11511 -0.72276 4035 ft 227 kts 79°
2026-05-05 20:52 51.11725 -0.69784 4031 ft 227 kts 81°
2026-05-05 20:52 51.11923 -0.67292 4030 ft 227 kts 81°
2026-05-05 20:52 51.12120 -0.64797 4029 ft 227 kts 81°
2026-05-05 20:53 51.12314 -0.62322 3839 ft 222 kts 81°
2026-05-05 20:53 51.12507 -0.59871 3996 ft 226 kts 81°
2026-05-05 20:53 51.12702 -0.57376 4027 ft 227 kts 81°
2026-05-05 20:53 51.12888 -0.54957 4006 ft 213 kts 81°
2026-05-05 20:54 51.13064 -0.52663 3877 ft 204 kts 81°
2026-05-05 20:54 51.13229 -0.50465 3747 ft 196 kts 81°
2026-05-05 20:54 51.13387 -0.48348 3617 ft 188 kts 81°
2026-05-05 20:54 51.13519 -0.46297 3419 ft 185 kts 86°
2026-05-05 20:55 51.13501 -0.44250 3175 ft 185 kts 90°
2026-05-05 20:55 51.13442 -0.42207 3046 ft 185 kts 91°
2026-05-05 20:55 51.13379 -0.40175 3073 ft 184 kts 91°
2026-05-05 20:55 51.13315 -0.38136 3035 ft 184 kts 91°
2026-05-05 20:56 51.13250 -0.36099 3037 ft 185 kts 91°
2026-05-05 20:56 51.13184 -0.34059 3024 ft 185 kts 91°
2026-05-05 20:56 51.13078 -0.32021 3023 ft 185 kts 102°
2026-05-05 20:56 51.12370 -0.30335 3028 ft 189 kts 143°
2026-05-05 20:57 51.11151 -0.29537 3034 ft 192 kts 163°
2026-05-05 20:57 51.09874 -0.29046 3034 ft 192 kts 166°
2026-05-05 20:57 51.08570 -0.28587 3021 ft 193 kts 166°
2026-05-05 20:57 51.07261 -0.28130 3037 ft 192 kts 166°
2026-05-05 20:58 51.05988 -0.27820 3020 ft 193 kts 184°
2026-05-05 20:58 51.04692 -0.28669 3040 ft 224 kts 221°
2026-05-05 20:58 51.03819 -0.30738 3031 ft 231 kts 255°
2026-05-05 20:58 51.03531 -0.33254 3035 ft 233 kts 264°
2026-05-05 20:59 51.03367 -0.35814 3029 ft 233 kts 266°
2026-05-05 20:59 51.03219 -0.38377 3030 ft 233 kts 266°
2026-05-05 20:59 51.03074 -0.40941 3032 ft 233 kts 266°
2026-05-05 20:59 51.02932 -0.43510 3022 ft 233 kts 266°
2026-05-05 21:00 51.02807 -0.46079 3020 ft 233 kts 272°
2026-05-05 21:00 51.03208 -0.48477 3015 ft 218 kts 305°
2026-05-05 21:00 51.04267 -0.50005 3024 ft 199 kts 331°
2026-05-05 21:00 51.05454 -0.50998 3025 ft 190 kts 338°
2026-05-05 21:01 51.06716 -0.51260 3019 ft 183 kts 16°
2026-05-05 21:01 51.07825 -0.50317 3031 ft 182 kts 37°
2026-05-05 21:01 51.08808 -0.49043 3035 ft 181 kts 40°
2026-05-05 21:01 51.09714 -0.47793 3018 ft 169 kts 41°
2026-05-05 21:02 51.10587 -0.46561 3067 ft 164 kts 44°
2026-05-05 21:02 51.11171 -0.45075 3022 ft 162 kts 71°
2026-05-05 21:02 51.11430 -0.43325 3003 ft 163 kts 76°
2026-05-05 21:02 51.11675 -0.41570 2858 ft 162 kts 76°
2026-05-05 21:03 51.11919 -0.39826 2660 ft 161 kts 76°
2026-05-05 21:03 51.12162 -0.38093 2466 ft 160 kts 77°
2026-05-05 21:03 51.12404 -0.36366 2247 ft 159 kts 77°
2026-05-05 21:03 51.12643 -0.34655 2062 ft 158 kts 77°
2026-05-05 21:04 51.12880 -0.32953 1832 ft 156 kts 78°
2026-05-05 21:04 51.13114 -0.31279 1611 ft 153 kts 78°
2026-05-05 21:04 51.13336 -0.29689 1397 ft 141 kts 77°
2026-05-05 21:04 51.13541 -0.28215 1210 ft 134 kts 78°
2026-05-05 21:05 51.13741 -0.26774 1015 ft 133 kts 77°
2026-05-05 21:05 51.13945 -0.25353 839 ft 131 kts 77°
2026-05-05 21:05 51.14140 -0.23933 668 ft 131 kts 77°
2026-05-05 21:05 51.14333 -0.22520 476 ft 130 kts 77°
2026-05-05 21:06 51.14525 -0.21127 307 ft 128 kts 77°
2026-05-05 21:06 51.14714 -0.19765 217 ft 117 kts 77°
2026-05-05 21:06 51.14850 -0.18780 206 ft 71 kts 78°
2026-05-05 21:06 51.14932 -0.18181 213 ft 37 kts 78°
2026-05-05 21:07 51.15014 -0.17888 211 ft 20 kts 54°
2026-05-05 21:07 51.15076 -0.17770 212 ft 12 kts 48°
2026-05-05 21:07 51.15143 -0.17767 205 ft 10 kts 347°
2026-05-05 21:07 51.15199 -0.17780 205 ft 10 kts 352°
2026-05-05 21:08 51.15267 -0.17722 209 ft 15 kts 73°
2026-05-05 21:08 51.15289 -0.17549 215 ft 17 kts 80°
2026-05-05 21:08 51.15314 -0.17386 212 ft 13 kts 46°
2026-05-05 21:08 51.15417 -0.17399 205 ft 19 kts 349°
2026-05-05 21:09 51.15570 -0.17450 205 ft 24 kts 347°
2026-05-05 21:09 51.15722 -0.17504 210 ft 13 kts 347°
2026-05-05 21:09 51.15748 -0.17617 213 ft 12 kts 257°
2026-05-05 21:09 51.15726 -0.17771 206 ft 16 kts 257°
2026-05-05 21:10 51.15710 -0.17890 205 ft 8 kts 257°
2026-05-05 21:10 51.15698 -0.17976 207 ft 7 kts 259°
2026-05-05 21:10 51.15709 -0.18012 213 ft 2 kts 350°
2026-05-05 21:10 51.15730 -0.17991 207 ft 8 kts 34°
2026-05-05 21:11 51.15767 -0.17953 210 ft 3 kts 33°
2026-05-05 21:11 51.15776 -0.17944 207 ft 0 kts 33°
2026-05-05 21:13 51.15769 -0.17951 209 ft 0 kts 32°